Location: Newark
(7.0858°N, 171.3717°E)
Time: 13:10:51
(UTC+00:00)

Vanguard 1 Rocket - Pass Details

Date: 03 December 2020
Orbit: 655 x 4222 km, 34.3° (Epoch: 23 January)

Event Time Altitude Azimuth Distance (km) Brightness Sun altitude
Rises 11:35:30 0° 251° (WSW) 6,682 12.0 -70.8°
Reaches altitude 10° 11:39:27 10° 256° (WSW) 6,047 11.7 -71.4°
Enters shadow 11:46:08 28° 266° (W) 5,184 11.1 -72.3°
Exits shadow 12:28:52 - 49° (NE) 7,394 11.9 -74.8°
Sets 12:30:54 0° 51° (NE) 7,683 12.0 -74.8°
